18. Februar 2020

Rabatt für Flugschulen

Bedingung:

Es handelt sich um direkt aufeinander folgende VFR-Platzrunden:

>  5 Landungen = davon 1 Landung gratis

> 10 Landungen = davon 2 Landungen gratis

(Ggf. anfallende Anfluggebühren werden ebenfalls nach obigen Schema erlassen)

 

Die gilt nicht für IFR-Flüge!

Coffee-To-Fly

Serviceangebote

Airport Coffee-Lounge

Nutzen Sie unsere gemütliche Lounge zum Ausruhen und Entspannen vor Ihrem nächsten Flug. Wir bieten Ihnen dazu Kaffee, Tee und Soft-Drinks sowie Sweets im Self-Service für kleines Geld. In unserer Flugvorbereitungs-Corner können Sie sich informieren. Natürlich bieten wir Ihnen freies WLAN. [ Mehr… ]

AirShampoo 2020 – Wir sind dabei!

Unser Flughafen ist in diesem Jahr neuer Teilnehmer beim AirShampoo-Lande-Gutscheinheft. Nutzen Sie die Gelegenheit und besuchen Sie uns!

Flugplatzwetter

METAR:

EDQM 181850Z 23013KT 9999 SCT035 OVC055 03/M00 Q1022

Unsere Onlineservices

Unsere Onlineservices

Doppelnutzung

In Abstimmung mit dem Freistaat Bayern wird der Verkehrslandeplatz Hof-Plauen bis auf weiteres einer Doppelnutzung ab 01.09.2015 zugeführt.

Aufgrund der Parallelnutzung zum Test von Fahrerassistenzsystemen aus dem Bereich der Automobilentwicklung ergibt sich folgende Einschränkungen:

Taxiway „B“ zeitweise nicht nutzbar und Vorfeldbereich eingeschränkt berollbar!